CLOUDSAT

Last updated on Wed Apr 24 2024 00:03:20 GMT+0000 (Coordinated Universal Time)

1 29107U 06016A 24114.57585848 .00004600 00000+0 58409-3 0 9992 2 29107 98.4056 97.4213 0005427 359.6365 0.4841 14.82195454958073
UTC large
Height (km)
Speed (km/s)
/
Latitude / Longitude
Inclination (degrees)
Orbital Period (minutes)
Azimuth
Elevation
Range (km)
Doppler Factor

Next 0 passes for location: London (51.5072 / 0.1276)

Sorry there are no passes over London.
CLOUDSAT